Lid_Strength_Index
1 1 1 1 1 0 -0 -0 -0 -1 -1 -1 -1 -1 -1 -1 -0 1 4 3 1 -1 1 3 3 3 4 4 4 5 10 11 11 11 10 8 9 8 8 9 8 7 8 8 7
1 1 1 1 1 1 0 -0 -0 -0 -1 -1 -1 -1 -1 -1 1 3 1 -2 -2 -2 3 5 5 5 6 5 5 8 10 10 9 9 10 8 9 8 9 9 9 8 7 6 6
1 1 1 1 1 1 0 0 -0 -0 -1 -1 -1 -1 -1 0 3 4 -1 -2 -2 0 3 4 4 5 7 7 7 8 10 9 9 8 7 8 9 8 10 10 9 9 9 8 7
0 1 1 1 1 1 0 0 0 -0 -0 -1 -1 -1 -0 2 8 2 -1 -2 -2 2 3 4 5 7 8 9 7 10 8 8 7 7 8 9 8 9 9 10 8 8 8 8 8
-0 0 0 1 1 1 0 0 -0 -0 -0 -1 -1 -1 1 5 5 1 -1 -1 2 3 4 5 7 7 9 9 8 10 9 8 8 8 8 8 9 9 9 9 8 8 8 9 9
-0 0 0 0 0 0 0 0 -0 -0 -0 -1 -1 -1 3 7 1 1 2 3 3 4 5 5 6 7 8 9 9 9 8 8 8 8 8 9 9 9 9 8 9 9 9 10 9
-1 -0 -0 0 0 -0 0 0 -0 -0 -0 -1 -1 1 4 5 1 1 3 3 3 4 5 5 5 7 7 9 8 8 10 9 8 8 9 9 11 11 9 9 9 10 10 10 10
-1 -0 -0 -0 -0 -0 -0 -0 -0 -0 -0 -1 -0 2 6 2 1 2 2 3 3 4 4 4 5 6 7 7 8 10 10 12 9 9 10 10 13 9 9 10 10 10 11 10 10
0 -0 -0 -0 -0 -0 -0 -0 -0 -0 -0 -0 2 3 6 2 4 2 2 4 4 4 5 5 5 7 8 11 12 10 14 12 11 9 10 11 12 11 9 10 10 11 10 10 11
1 1 1 -0 -0 -0 -0 -0 -0 0 0 1 2 6 5 6 4 3 3 3 5 6 7 7 8 10 10 12 15 13 13 12 13 11 11 12 12 10 10 10 11 10 10 11 11
1 1 1 1 1 0 0 1 4 5 3 5 5 5 5 6 4 5 4 5 5 7 10 8 11 12 11 10 10 11 12 13 11 11 13 12 11 10 11 11 12 11 11 11 12
1 1 1 1 1 1 2 4 4 4 7 4 4 5 4 5 7 6 5 7 7 10 9 11 13 10 9 9 11 11 13 13 11 10 13 13 12 10 11 11 11 11 11 12 13
1 1 1 1 1 2 2 3 2 3 8 6 5 5 5 6 7 7 7 7 9 10 10 12 10 8 10 11 12 12 13 13 13 11 12 14 15 12 10 11 11 11 11 12 13
1 1 1 1 3 2 4 1 2 2 11 9 7 6 6 6 8 6 6 7 9 11 10 11 9 10 12 12 12 14 11 12 12 14 17 13 18 14 12 13 12 13 13 14 14
2 1 0 1 2 4 2 2 2 3 20 8 8 5 6 8 8 9 7 9 11 11 11 12 12 12 13 12 11 13 12 13 13 14 15 15 17 15 12 13 13 13 14 14 15
2 1 1 1 2 2 1 2 4 13 19 11 9 10 10 9 10 10 10 9 9 11 11 12 11 12 12 12 12 11 13 14 15 15 19 16 15 15 13 13 13 13 13 14 15
2 1 1 1 4 2 2 4 14 18 9 12 11 10 10 11 11 11 12 13 13 16 15 12 12 12 11 13 13 13 15 19 20 20 20 15 16 14 13 12 11 13 14 14 15
2 0 1 1 1 1 3 9 17 13 12 9 10 10 11 10 11 11 12 14 12 12 14 15 16 12 11 12 14 14 14 18 22 22 19 17 19 15 14 12 12 12 13 14 16
2 1 1 1 1 2 7 15 15 12 9 10 10 12 12 10 11 11 12 12 11 11 14 14 14 12 11 11 11 14 16 12 16 20 19 16 15 13 14 14 13 13 14 15 16
4 3 3 -0 1 3 10 13 12 8 8 9 13 11 14 12 12 12 12 10 10 10 9 11 16 12 13 12 12 13 12 16 16 21 23 18 17 15 16 15 14 14 15 16 16
4 6 2 -0 1 7 13 12 10 7 7 10 11 12 11 12 11 12 12 9 9 9 9 11 13 14 14 15 13 14 15 13 13 16 21 22 17 15 14 13 14 14 14 15 16
5 9 2 0 9 9 12 9 8 8 7 9 9 10 11 11 12 12 12 10 8 8 11 10 12 16 14 11 12 12 13 13 17 18 16 17 17 14 14 13 13 14 14 14 15
7 7 2 2 12 11 9 9 8 9 9 9 10 9 9 11 14 12 11 8 8 9 10 10 14 18 17 13 13 15 13 12 12 14 17 19 17 14 13 14 13 14 14 14 15
7 10 7 6 6 9 10 10 11 7 9 8 9 9 10 11 10 12 12 9 8 8 8 8 13 15 17 15 13 15 13 13 13 16 16 16 14 14 14 14 13 14 13 14 15
6 10 9 11 10 9 9 10 11 11 8 8 10 10 11 14 12 12 10 10 10 9 9 10 15 14 13 12 12 13 14 13 14 13 16 14 14 11 10 13 12 12 13 14 15
7 8 8 10 11 10 10 11 11 10 9 10 11 10 10 12 12 14 11 11 12 10 11 10 15 13 15 13 13 14 13 13 12 12 12 12 13 11 11 12 13 12 13 14 15
4 4 6 9 11 11 11 10 11 9 9 8 9 10 11 10 8 7 7 8 9 11 12 12 13 15 17 14 14 17 14 13 12 11 11 14 12 13 13 13 13 13 13 13 14